Location: Unspecified
(0.0000°N, 0.0000°E)
Time: 21:03:38
(UTC+00:00)

deb r/b Kosmos R-14 - Visible Passes

Search period start: 09 June 2026 00:00
Search period end: 19 June 2026 00:00
Orbit: 550 x 1323 km, 56.1° (Epoch: 9 June)

Date Brightness Start Highest point End Pass type
(mag) Time Alt. Az. Time Alt. Az. Time Alt. Az.
9 Jun ? 18:40:16 10° WNW 18:44:14 31° SW 18:48:53 10° S visible
10 Jun ? 04:07:08 10° SSE 04:11:11 14° SE 04:15:03 10° E visible
10 Jun ? 18:55:20 10° W 18:57:55 15° SW 19:00:44 10° SSW visible
11 Jun ? 04:18:23 10° S 04:24:57 26° ESE 04:31:00 10° ENE visible
12 Jun ? 04:30:49 10° SSW 04:38:37 45° ESE 04:45:34 10° NE visible
13 Jun ? 03:02:13 10° SE 03:03:28 10° SE 03:04:43 10° ESE visible
13 Jun ? 04:44:34 13° SSW 04:52:10 76° ESE 04:59:26 10° NE visible
14 Jun ? 03:14:39 17° SSE 03:17:16 20° SE 03:22:40 10° E visible
14 Jun ? 04:58:30 14° SW 05:05:37 65° WNW 05:12:45 10° NNE visible
15 Jun ? 03:28:33 30° SSE 03:30:56 35° ESE 03:37:43 10° ENE visible
15 Jun ? 05:12:24 13° WSW 05:19:00 37° WNW 05:25:32 10° N visible
16 Jun ? 03:42:24 47° S 03:44:31 59° ESE 03:51:52 10° NE visible
16 Jun ? 05:26:42 10° WSW 05:32:22 21° WNW 05:37:33 10° NNW visible
17 Jun ? 02:12:22 13° ESE 02:12:22 13° ESE 02:13:48 10° E visible
17 Jun ? 03:56:12 59° SW 03:57:59 83° WNW 04:05:25 10° NNE visible
18 Jun ? 02:26:04 22° E 02:26:04 22° E 02:29:34 10° ENE visible
18 Jun ? 04:09:55 45° W 04:11:22 49° WNW 04:18:28 10° NNE visible
